Regional Weather Roundup
Issued by NWS Cleveland, OH

Home | Current Version | Previous Version | Graphics & Text | Print | Product List | Glossary Off
Versions: 1 2 3 4 5 6 7 8 9 10 11 12 13 14 15 16 17 18 19 20 21 22 23 24 25 26 27 28 29 30 31 32 33 34 35 36 37 38 39 40 41 42 43 44 45 46 47 48 49 50

000
ASUS41 KCLE 251212
RWRCLE
OHIO REGIONAL WEATHER ROUNDUP
NATIONAL WEATHER SERVICE WILMINGTON, OH
800 AM EDT MON JUL 25 2016

NOTE: "FAIR" INDICATES FEW OR NO CLOUDS BELOW 12,000 FEET WITH NO
SIGNIFICANT WEATHER AND/OR OBSTRUCTIONS TO VISIBILITY.

OHZ001>008-015>018-024>027-034-035-043-044-251300-
   NORTHWEST OHIO

CITY           SKY/WX    TMP DP  RH WIND       PRES   REMARKS
DEFIANCE       FAIR      74  67  78 S6        29.97S
FINDLAY        FAIR      76  67  73 W8        29.97R
TOLEDO EXPRESS FAIR      73  70  90 W10       29.94R
TOLEDO EXEC    FAIR      77  70  79 W12       29.95R
LIMA           FAIR      75  71  87 W9        30.00R
$$

OHZ009>014-019>023-028>033-038-089-251300-
   NORTHEAST OHIO

CITY           SKY/WX    TMP DP  RH WIND       PRES   REMARKS
CLE-HOPKINS    PTSUNNY   80  72  76 SW8       29.95R
CLE-LAKEFRONT  FAIR      82  73  74 SW15      29.92R
CUY CO. ARPT   CLOUDY    81  75  83 SW12      29.94
LORAIN-ELYRIA  FAIR      77  73  87 W9        29.95R
ASHTABULA      FAIR      77  73  87 SW6       29.94R
AKRON-CANTON   FAIR      76  71  85 SW8       29.97S HAZE
WOOSTER        FAIR      75  73  93 SW6       29.98R
MANSFIELD      CLOUDY    78  75  90 W7        29.99R
YOUNGSTOWN     CLOUDY    76  72  87 SW8       29.95F
$$

OHZ042-051>053-060>062-070>072-077>081-251300-
  SOUTHWEST OHIO

CITY           SKY/WX    TMP DP  RH WIND       PRES   REMARKS
CINC-COVINGTON PTSUNNY   78  76  93 SW3       30.01R
CINC-LUNKEN    FAIR      78  77  96 CALM      30.00R
HAMILTON       FAIR      79  75  87 CALM      30.01R
DAYTON         PTSUNNY   78  73  84 W8        30.02R
WRIGHT-PAT AFB FAIR      80  77  91 SW6       29.99R
DAYTON GENERAL FAIR      80  73  79 SW8       30.01R
WILMINGTON     FAIR      77  75  93 SW5       30.01R FOG
$$

OHZ036-037-039>041-045>050-054>059-063>069-073>076-082>088-251300-
  CENTRAL AND SOUTHEAST OHIO

CITY           SKY/WX    TMP DP  RH WIND       PRES   REMARKS
COLUMBUS       PTSUNNY   78  74  87 SW7       29.98R
OSU AIRPORT    FAIR      80  75  84 SW8       29.98S
BOLTON FIELD   SUNNY     77  75  94 SW8       30.00R FOG
RICKENBACK AFB FAIR      77  74  92 SW8       29.98S
NEWARK         FAIR      78  75  90 SW5       29.98S
MARION         FAIR      78  73  84 W7        29.98R HAZE
LANCASTER      FAIR      79  75  87 SW5       29.99S
ZANESVILLE     FAIR      80  74  81 SW6       29.98F
NEW PHILLY     FAIR      78  71  79 SE5       29.97F
$$




USA.gov is the U.S. government's official web portal to all federal, state and local government web resources and services.